• In Hungary
  • List of Countries
  • For 7 days
  • Water Temperature
  • Satellite Maps
  • Weather Map
  • News
  • Weather Widgets
  • user-avatar
    Login

    Hourly Weather Bahchisaraj

    Today, 23 September, Sunday

    Time Temperature Precipitation Wind Pressure Humidity
    00:00 +19°C° 0 mm 2 mps 742 mmHg 71%
    01:00 +19°C° 0 mm 2 mps 742 mmHg 72%
    02:00 +19°C° 0 mm 2 mps 742 mmHg 72%
    03:00 +18°C° 0 mm 2 mps 742 mmHg 73%
    04:00 +18°C° 0 mm 2 mps 742 mmHg 73%
    05:00 +18°C° 0 mm 2 mps 742 mmHg 74%
    06:00 +19°C° 0 mm 3 mps 742 mmHg 68%
    07:00 +21°C° 0 mm 3 mps 742 mmHg 62%
    08:00 +22°C° 0 mm 3 mps 743 mmHg 57%
    09:00 +24°C° 0 mm 3 mps 743 mmHg 55%
    10:00 +25°C° 0 mm 4 mps 743 mmHg 54%
    11:00 +25°C° 0 mm 4 mps 744 mmHg 53%
    12:00 +25°C° 0 mm 4 mps 744 mmHg 54%
    13:00 +25°C° 0 mm 4 mps 744 mmHg 55%
    14:00 +25°C° 0 mm 4 mps 744 mmHg 55%
    15:00 +23°C° 0 mm 4 mps 744 mmHg 59%
    16:00 +22°C° 0 mm 4 mps 744 mmHg 63%
    17:00 +20°C° 0 mm 4 mps 744 mmHg 66%
    18:00 +19°C° 0 mm 4 mps 744 mmHg 71%
    19:00 +18°C° 0 mm 4 mps 745 mmHg 77%
    20:00 +17°C° 0 mm 3 mps 745 mmHg 82%
    21:00 +16°C° 0 mm 3 mps 745 mmHg 83%
    22:00 +16°C° 0 mm 3 mps 745 mmHg 84%
    23:00 +14°C° 0 mm 3 mps 745 mmHg 85%

    Tomorrow, 24 September, Monday

    Time Temperature Precipitation Wind Pressure Humidity
    00:00 +15°C° 0 mm 2 mps 745 mmHg 84%
    01:00 +15°C° 0 mm 2 mps 745 mmHg 84%
    02:00 +14°C° 0 mm 2 mps 745 mmHg 83%
    03:00 +14°C° 0 mm 2 mps 744 mmHg 83%
    04:00 +13°C° 0 mm 3 mps 744 mmHg 83%
    05:00 +13°C° 0 mm 3 mps 744 mmHg 83%
    06:00 +15°C° 0 mm 4 mps 744 mmHg 77%
    07:00 +17°C° 0 mm 4 mps 744 mmHg 72%
    08:00 +19°C° 0 mm 5 mps 743 mmHg 66%
    09:00 +21°C° 0 mm 5 mps 743 mmHg 60%
    10:00 +22°C° 0 mm 5 mps 743 mmHg 55%
    11:00 +25°C° 0 mm 5 mps 742 mmHg 50%
    12:00 +25°C° 0 mm 5 mps 742 mmHg 50%
    13:00 +26°C° 0 mm 5 mps 741 mmHg 51%
    14:00 +26°C° 0 mm 6 mps 741 mmHg 52%
    15:00 +24°C° 0 mm 6 mps 740 mmHg 58%
    16:00 +23°C° 0 mm 5 mps 739 mmHg 64%
    17:00 +22°C° 0 mm 5 mps 739 mmHg 71%
    18:00 +21°C° 0 mm 5 mps 739 mmHg 74%
    19:00 +21°C° 0 mm 5 mps 739 mmHg 77%
    20:00 +20°C° 0 mm 5 mps 739 mmHg 80%
    21:00 +20°C° 0 mm 5 mps 739 mmHg 80%
    22:00 +19°C° 0 mm 4 mps 739 mmHg 79%
    23:00 +19°C° 0 mm 4 mps 739 mmHg 79%

    Day after tomorrow, 25 September, Tuesday

    Time Temperature Precipitation Wind Pressure Humidity
    00:00 +17°C° 0 mm 5 mps 740 mmHg 79%
    01:00 +15°C° 0 mm 7 mps 740 mmHg 80%
    02:00 +13°C° 0 mm 8 mps 741 mmHg 80%
    03:00 +12°C° 0.1 mm 7 mps 741 mmHg 80%
    04:00 +12°C° 0.1 mm 7 mps 741 mmHg 80%
    05:00 +11°C° 0.1 mm 7 mps 741 mmHg 80%
    06:00 +11°C° 0.2 mm 6 mps 742 mmHg 79%
    07:00 +11°C° 0.2 mm 6 mps 743 mmHg 78%
    08:00 +11°C° 0.2 mm 6 mps 743 mmHg 77%
    09:00 +11°C° 0.4 mm 6 mps 744 mmHg 75%
    10:00 +11°C° 0.4 mm 6 mps 744 mmHg 73%
    11:00 +13°C° 0.4 mm 6 mps 745 mmHg 70%
    12:00 +13°C° 0 mm 6 mps 745 mmHg 65%
    13:00 +14°C° 0 mm 7 mps 745 mmHg 60%
    14:00 +14°C° 0 mm 7 mps 745 mmHg 55%
    15:00 +14°C° 0 mm 7 mps 745 mmHg 54%
    16:00 +12°C° 0 mm 7 mps 745 mmHg 54%
    17:00 +12°C° 0 mm 7 mps 746 mmHg 53%
    18:00 +11°C° 0 mm 6 mps 746 mmHg 56%
    19:00 +10°C° 0 mm 5 mps 747 mmHg 59%
    20:00 +9°C° 0 mm 5 mps 747 mmHg 62%
    21:00 +9°C° 0.1 mm 5 mps 747 mmHg 65%
    22:00 +8°C° 0.1 mm 5 mps 747 mmHg 68%
    23:00 +8°C° 0.1 mm 5 mps 748 mmHg 70%

    26 September, Wednesday

    Time Temperature Precipitation Wind Pressure Humidity
    00:00 +8°C° 0.1 mm 5 mps 748 mmHg 73%
    01:00 +7°C° 0.1 mm 5 mps 748 mmHg 75%
    02:00 +7°C° 0.1 mm 5 mps 748 mmHg 78%
    03:00 +7°C° 0 mm 5 mps 749 mmHg 77%
    04:00 +6°C° 0 mm 5 mps 749 mmHg 77%
    05:00 +6°C° 0 mm 5 mps 749 mmHg 77%
    06:00 +7°C° 0 mm 5 mps 750 mmHg 71%
    07:00 +8°C° 0 mm 5 mps 750 mmHg 65%
    08:00 +9°C° 0 mm 5 mps 750 mmHg 59%
    09:00 +10°C° 0 mm 5 mps 751 mmHg 53%
    10:00 +12°C° 0 mm 5 mps 751 mmHg 47%
    11:00 +13°C° 0 mm 5 mps 751 mmHg 41%
    12:00 +13°C° 0 mm 5 mps 751 mmHg 40%
    13:00 +13°C° 0 mm 5 mps 751 mmHg 39%
    14:00 +14°C° 0 mm 5 mps 751 mmHg 38%
    15:00 +13°C° 0 mm 5 mps 751 mmHg 41%
    16:00 +12°C° 0 mm 5 mps 751 mmHg 43%
    17:00 +10°C° 0 mm 5 mps 751 mmHg 46%
    18:00 +9°C° 0 mm 5 mps 751 mmHg 49%
    19:00 +8°C° 0 mm 5 mps 751 mmHg 52%
    20:00 +8°C° 0 mm 5 mps 752 mmHg 55%
    21:00 +7°C° 0 mm 5 mps 752 mmHg 56%
    22:00 +7°C° 0 mm 5 mps 752 mmHg 57%
    23:00 +7°C° 0 mm 5 mps 752 mmHg 59%

    27 September, Thursday

    Time Temperature Precipitation Wind Pressure Humidity
    00:00 +6°C° 0 mm 5 mps 752 mmHg 62%
    01:00 +6°C° 0 mm 5 mps 751 mmHg 65%
    02:00 +6°C° 0 mm 5 mps 751 mmHg 68%
    03:00 +6°C° 0 mm 5 mps 751 mmHg 71%
    04:00 +5°C° 0 mm 5 mps 751 mmHg 75%
    05:00 +5°C° 0 mm 5 mps 751 mmHg 78%
    06:00 +6°C° 0 mm 5 mps 751 mmHg 73%
    07:00 +8°C° 0 mm 5 mps 751 mmHg 67%
    08:00 +9°C° 0 mm 5 mps 751 mmHg 62%
    09:00 +12°C° 0 mm 5 mps 751 mmHg 56%
    10:00 +13°C° 0 mm 4 mps 751 mmHg 49%
    11:00 +14°C° 0 mm 4 mps 751 mmHg 43%
    12:00 +15°C° 0 mm 4 mps 750 mmHg 42%
    13:00 +15°C° 0 mm 4 mps 750 mmHg 40%
    14:00 +17°C° 0 mm 3 mps 750 mmHg 38%
    15:00 +16°C° 0 mm 3 mps 750 mmHg 40%
    16:00 +14°C° 0 mm 3 mps 749 mmHg 43%
    17:00 +13°C° 0 mm 3 mps 749 mmHg 46%
    18:00 +12°C° 0 mm 3 mps 749 mmHg 49%
    19:00 +10°C° 0 mm 3 mps 749 mmHg 52%
    20:00 +9°C° 0 mm 3 mps 749 mmHg 55%
    21:00 +9°C° 0 mm 3 mps 749 mmHg 56%
    22:00 +9°C° 0 mm 3 mps 749 mmHg 57%
    23:00 +8°C° 0 mm 2 mps 749 mmHg 59%

    28 September, Friday

    Time Temperature Precipitation Wind Pressure Humidity
    00:00 +8°C° 0 mm 2 mps 749 mmHg 57%
    01:00 +8°C° 0 mm 2 mps 749 mmHg 56%
    02:00 +8°C° 0 mm 2 mps 748 mmHg 55%
    03:00 +8°C° 0 mm 2 mps 748 mmHg 52%
    04:00 +8°C° 0 mm 2 mps 748 mmHg 49%
    05:00 +8°C° 0 mm 2 mps 748 mmHg 46%
    06:00 +10°C° 0 mm 2 mps 748 mmHg 42%
    07:00 +13°C° 0 mm 2 mps 748 mmHg 38%
    08:00 +14°C° 0 mm 2 mps 748 mmHg 35%
    09:00 +16°C° 0 mm 2 mps 748 mmHg 33%
    10:00 +19°C° 0 mm 1 mps 748 mmHg 32%
    11:00 +20°C° 0 mm 1 mps 748 mmHg 30%
    12:00 +21°C° 0 mm 1 mps 748 mmHg 31%
    13:00 +20°C° 0 mm 2 mps 747 mmHg 32%
    14:00 +20°C° 0 mm 2 mps 747 mmHg 34%
    15:00 +19°C° 0 mm 2 mps 747 mmHg 38%
    16:00 +18°C° 0 mm 2 mps 746 mmHg 42%
    17:00 +17°C° 0 mm 2 mps 746 mmHg 46%
    18:00 +16°C° 0 mm 3 mps 746 mmHg 48%
    19:00 +14°C° 0 mm 3 mps 746 mmHg 50%
    20:00 +13°C° 0 mm 3 mps 746 mmHg 52%
    21:00 +13°C° 0 mm 3 mps 745 mmHg 53%
    22:00 +13°C° 0 mm 3 mps 745 mmHg 54%
    23:00 +13°C° 0 mm 3 mps 745 mmHg 55%
    Show more